Regional Weather Roundup
Issued by NWS Northern Indiana

Home | Current Version | Previous Version | Graphics & Text | Print | Product List | Glossary On
Versions: 1 2 3 4 5 6 7 8 9 10 11 12 13 14 15 16 17 18 19 20 21 22 23 24 25 26 27 28 29 30 31 32 33 34 35 36 37 38 39 40 41 42 43 44 45 46 47 48 49 50
000
ASUS43 KIWX 222010
RWRIWX

KIWX WEATHER ROUNDUP
NATIONAL WEATHER SERVICE NORTHERN INDIANA
400 PM EDT TUE MAY 22 2018

NOTE: "FAIR" INDICATES FEW OR NO CLOUDS BELOW 12,000 FEET WITH NO
SIGNIFICANT WEATHER AND/OR OBSTRUCTIONS TO VISIBILITY.

* THESE STATIONS ARE NOT UNDER NWS QUALITY CONTROL. THEY ALSO MAY NOT
  REPORT WEATHER SUCH AS PRECIPITATION OR FOG.

INZ001>027-222100-
NORTHERN INDIANA

CITY           SKY/WX    TMP DP  RH WIND       PRES   REMARKS
GARY*          CLOUDY    55  54  94 VRB6      30.09F FOG
VALPARAISO     CLOUDY    64  56  75 N8        30.07S
LAPORTE*       CLOUDY    60  55  84 N7        30.07F
KNOX*          CLOUDY    66  59  77 N13       30.05S
SOUTH BEND     CLOUDY    59  54  83 NW10      30.07S
ELKHART*       CLOUDY    66  57  72 NW12      30.04S
GOSHEN         CLOUDY    69  62  78 W13       30.02S
ROCHESTER*     FAIR      75  61  60 NW9G20    30.03S
WARSAW*        CLOUDY    70  61  73 NW16      30.03R
AUBURN*        FAIR      75  63  64 W9G18     30.00S
FORT WAYNE     FAIR      78  62  57 W16G22    29.99F
PERU/GRISSOM   FAIR      79  59  50 NW15      30.00S
MARION*        FAIR      78  62  57 NW13G21   30.00F

$$
INZ028>050-222100-
CENTRAL INDIANA

CITY           SKY/WX    TMP DP  RH WIND       PRES   REMARKS
LAFAYETTE      PTSUNNY   81  60  48 W15       29.99F
KOKOMO*        FAIR      78  61  55 NW16      30.01F
MUNCIE*        FAIR      84  63  49 NW18G24   29.97F
INDIANAPOLIS   PTSUNNY   84  64  50 W16       29.98F

$$
MIZ043>046-050>051-056>058-064>065-071>073-077>080-222100-
SOUTHWEST LOWER MICHIGAN

CITY           SKY/WX    TMP DP  RH WIND       PRES   REMARKS
BATTLE CREEK   CLOUDY    66  58  75 NW10      30.02S
BENTON HARBOR  CLOUDY    54  51  90 VRB7      30.07S
COLDWATER*     CLOUDY    69  58  67 NW10      30.00S
HILLSDALE*     PTSUNNY   72  59  64 NW16G24   29.98S
HOLLAND        FAIR      60  53  77 W10       30.04F
GRAND RAPIDS   CLOUDY    62  57  83 W9        30.02S
KALAMAZOO      CLOUDY    68  59  73 W12       30.02F
STURGIS*       CLOUDY    69  60  73 NW13      30.01S
THREE RIVERS*  CLOUDY    67  59  74 NW10      30.03S

$$
OHZ001>008-015>018-024>025-222100-
NORTHWEST OHIO

CITY           SKY/WX    TMP DP  RH WIND       PRES   REMARKS
DEFIANCE       FAIR      78  61  55 W10G17    29.96F
FINDLAY        PTSUNNY   78  68  71 NW12      29.94R
TOLEDO EXPRESS FAIR      80  62  54 W16G28    29.93F
TOLEDO METCALF FAIR      79  63  57 W14       29.93F
LIMA           CLOUDY    76  68  76 W8        29.95S

$$
AND FOR LAKE MICHIGAN COASTAL AND OPEN LAKE BUOY OBSERVATIONS

STATION/POSITION TEMP    WIND        PRES    VSBY  WAVE
                 AIR SEA DIR/SP/G                  HT/PER
                 (F)     (DEG/KT/KT) (MB)    (MI)  (FT/S)
CALUMET HARBOR    51      50/  6/  7 1018.2S
MICHIGAN CITY     48      10/  1/  1   N/A
BURNS HARBOR      51        CALM     1019.0F
SAINT JOSEPH      51     280/  4/  5 1019.3
4 MI NW BRIDGMAN  48 53  310/  4/  6 1019.0          1/ 3
MICHIGAN CITY     47 54   60/  2/  4   N/A           1

$$
&&



USA.gov is the U.S. government's official web portal to all federal, state and local government web resources and services.